FW3337 Weather Reports


Display with metric or nautical units.
time (UTC)temp
F
wind
direction
speed
MPH
gust
MPH
rain 1hr
in
rain 24hr
in
rain mn
in
humidity
%
barometer
mb
20200710134348 75 87 1.0 2.0 0.00 0.00 0.00 91 1014.2
20200710133853 75 87 0.0 6.0 0.00 0.00 0.00 91 1014.3
20200710133358 75 87 2.0 6.0 0.00 0.00 0.00 91 1014.2
20200710132845 75 84 2.0 8.0 0.00 0.00 0.00 92 1014.2
20200710132352 75 98 1.0 8.0 0.00 0.00 0.00 92 1014.1
20200710131859 75 81 0.0 6.0 0.00 0.00 0.00 93 1014.2
20200710131346 75 100 1.0 4.0 0.00 0.00 0.00 93 1014.2
20200710130858 74 100 1.0 4.0 0.00 0.00 0.00 93 1014.2
20200710130343 74 88 1.0 7.0 0.00 0.00 0.00 93 1014.4
20200710125849 74 90 3.0 7.0 0.00 0.00 0.00 94 1014.5
20200710125357 74 93 0.0 3.0 0.00 0.00 0.00 94 1014.5
20200710124844 74 93 2.0 4.0 0.00 0.00 0.00 94 1014.6
20200710124356 74 100 0.0 4.0 0.00 0.00 0.00 95 1014.6
20200710123902 74 100 0.0 4.0 0.00 0.00 0.00 95 1014.6
20200710123346 74 100 0.0 4.0 0.00 0.00 0.00 95 1014.7
20200710122853 74 108 0.0 4.0 0.00 0.00 0.00 95 1014.8
20200710122400 73 108 0.0 4.0 0.00 0.00 0.00 96 1014.7
20200710121849 73 109 0.0 1.0 0.00 0.00 0.00 96 1014.5
20200710121354 73 109 0.0 1.0 0.00 0.00 0.00 96 1014.5
20200710120841 73 109 0.0 2.0 0.00 0.00 0.00 96 1014.6
20200710120354 73 109 0.0 3.0 0.00 0.00 0.00 96 1014.6
20200710120008 73 109 0.0 3.0 0.00 0.00 0.00 96 1014.0
20200710115901 73 109 0.0 3.0 0.00 0.00 0.00 96 1014.7
20200710115350 73 114 0.0 2.0 0.00 0.00 0.00 96 1014.8
20200710114857 73 203 1.0 2.0 0.00 0.00 0.00 96 1014.9
20200710114345 73 203 0.0 1.0 0.00 0.00 0.00 96 1015.0
20200710113853 73 203 0.0 1.0 0.00 0.00 0.00 96 1015.0
20200710113342 72 203 0.0 1.0 0.00 0.00 0.00 96 1015.2
20200710112851 72 203 0.0 1.0 0.00 0.00 0.00 96 1015.3
20200710112357 72 203 0.0 2.0 0.00 0.00 0.00 96 1015.4
20200710111846 72 203 0.0 2.0 0.00 0.00 0.00 96 1015.3
20200710111353 72 203 0.0 1.0 0.00 0.00 0.00 96 1015.2
20200710110843 72 203 0.0 0.0 0.00 0.00 0.00 96 1015.1
20200710110354 72 203 0.0 1.0 0.00 0.00 0.00 96 1015.2
20200710105847 72 203 0.0 1.0 0.00 0.00 0.00 97 1015.3
20200710105351 72 203 0.0 2.0 0.00 0.00 0.00 96 1015.3
20200710104857 71 203 0.0 0.0 0.00 0.00 0.00 97 1015.1
20200710104507 71 203 0.0 1.0 0.00 0.00 0.00 97 1014.6
20200710104402 71 203 1.0 1.0 0.00 0.00 0.00 97 1015.2
20200710103848 71 203 0.0 1.0 0.00 0.00 0.00 97 1015.2
20200710103356 70 203 0.0 1.0 0.00 0.00 0.00 97 1015.1
20200710103012 70 203 0.0 1.0 0.00 0.00 0.00 96 1014.6
20200710102901 70 203 0.0 1.0 0.00 0.00 0.00 96 1015.1
20200710102347 70 203 0.0 0.0 0.00 0.00 0.00 96 1015.2
20200710101852 70 203 0.0 0.0 0.00 0.00 0.00 96 1015.2
20200710101357 70 203 0.0 0.0 0.00 0.00 0.00 96 1015.1
20200710100840 70 203 0.0 0.0 0.00 0.00 0.00 96 1015.2
20200710100353 70 203 0.0 0.0 0.00 0.00 0.00 96 1015.3
20200710095857 70 203 0.0 1.0 0.00 0.00 0.00 97 1015.2
20200710094846 68 203 0.0 0.0 0.00 0.00 0.00 96 1015.3
20200710094349 68 203 0.0 0.0 0.00 0.00 0.00 96 1015.4
20200710093857 68 203 0.0 0.0 0.00 0.00 0.00 96 1015.3
20200710093343 68 203 0.0 0.0 0.00 0.00 0.00 96 1015.4
20200710092850 68 203 0.0 0.0 0.00 0.00 0.00 96 1015.5
20200710092359 68 203 0.0 0.0 0.00 0.00 0.00 96 1015.4
20200710091846 68 203 0.0 0.0 0.00 0.00 0.00 96 1015.4
20200710091354 68 203 0.0 0.0 0.00 0.00 0.00 96 1015.5
20200710090839 68 203 0.0 0.0 0.00 0.00 0.00 96 1015.4
20200710090354 68 203 0.0 0.0 0.00 0.00 0.00 96 1015.3
20200710085842 68 203 0.0 0.0 0.00 0.00 0.00 96 1015.4
20200710085354 67 203 0.0 0.0 0.00 0.00 0.00 96 1015.5
20200710084858 67 203 0.0 0.0 0.00 0.00 0.00 96 1015.6
20200710084346 67 203 0.0 0.0 0.00 0.00 0.00 96 1015.4
20200710083854 67 203 0.0 0.0 0.00 0.00 0.00 96 1015.3
20200710083341 67 203 0.0 0.0 0.00 0.00 0.00 96 1015.5
20200710082850 67 203 0.0 0.0 0.00 0.00 0.00 96 1015.5
20200710082359 67 203 0.0 0.0 0.00 0.00 0.00 96 1015.5
20200710081847 67 203 0.0 0.0 0.00 0.00 0.00 95 1015.6
20200710081353 67 203 0.0 0.0 0.00 0.00 0.00 95 1015.5
20200710080901 67 203 0.0 0.0 0.00 0.00 0.00 95 1015.6
20200710080349 67 203 0.0 1.0 0.00 0.00 0.00 95 1015.5
20200710075856 67 203 0.0 1.0 0.00 0.00 0.00 95 1015.4
20200710075348 67 203 0.0 0.0 0.00 0.00 0.00 95 1015.4
20200710074853 67 203 0.0 0.0 0.00 0.00 0.00 95 1015.6
20200710074400 67 203 0.0 0.0 0.00 0.00 0.00 95 1015.7
20200710073846 67 203 0.0 0.0 0.00 0.00 0.00 95 1015.7
20200710073354 67 203 0.0 0.0 0.00 0.00 0.00 95 1015.6
20200710072843 67 203 0.0 0.0 0.00 0.00 0.00 95 1015.7
20200710072349 67 203 0.0 0.0 0.00 0.00 0.00 95 1015.6
20200710071855 67 203 0.0 0.0 0.00 0.00 0.00 95 1015.6
20200710071343 67 203 0.0 0.0 0.00 0.00 0.00 95 1015.5
20200710070850 67 203 0.0 0.0 0.00 0.00 0.00 95 1015.5
20200710065843 67 203 0.0 0.0 0.00 0.00 0.00 95 1015.5
20200710065357 67 203 0.0 0.0 0.00 0.00 0.00 95 1015.5
20200710064843 67 203 0.0 0.0 0.00 0.00 0.00 95 1015.5
20200710064350 67 203 0.0 0.0 0.00 0.00 0.00 95 1015.6
20200710063855 68 203 0.0 0.0 0.00 0.00 0.00 95 1015.8
20200710063402 68 203 0.0 0.0 0.00 0.00 0.00 95 1015.9
20200710062850 68 203 0.0 0.0 0.00 0.00 0.00 95 1016.0
20200710062357 68 203 0.0 0.0 0.00 0.00 0.00 94 1016.0
20200710061845 68 203 0.0 0.0 0.00 0.00 0.00 94 1016.0
20200710061351 68 203 0.0 0.0 0.00 0.00 0.00 94 1016.0
20200710060854 68 203 0.0 0.0 0.00 0.00 0.00 94 1016.1
20200710060348 68 203 0.0 0.0 0.00 0.00 0.00 94 1016.0
20200710055853 68 203 0.0 0.0 0.00 0.00 0.00 94 1016.0
20200710055359 68 203 0.0 0.0 0.00 0.00 0.00 94 1016.0
20200710054848 68 203 0.0 0.0 0.00 0.00 0.00 94 1016.1
20200710054355 68 203 0.0 0.0 0.00 0.00 0.00 94 1016.0
20200710053843 68 203 0.0 0.0 0.00 0.00 0.00 94 1016.1
20200710053349 68 203 0.0 0.0 0.00 0.00 0.00 94 1016.2
20200710052856 68 203 0.0 0.0 0.00 0.00 0.00 94 1016.1
20200710052344 68 203 0.0 0.0 0.00 0.00 0.00 94 1016.1
20200710051852 68 203 0.0 0.0 0.00 0.00 0.00 94 1016.0
20200710051359 69 203 0.0 0.0 0.00 0.00 0.00 94 1016.1
20200710050846 69 203 0.0 0.0 0.00 0.00 0.00 94 1016.1
20200710050359 69 203 0.0 0.0 0.00 0.00 0.00 94 1016.0
20200710045846 69 203 0.0 0.0 0.00 0.00 0.00 94 1016.0
20200710045354 69 203 0.0 0.0 0.00 0.00 0.00 94 1016.0
20200710044900 69 203 0.0 0.0 0.00 0.00 0.00 94 1016.0
20200710044347 69 203 0.0 0.0 0.00 0.00 0.00 93 1016.1
20200710043853 69 203 0.0 0.0 0.00 0.00 0.00 93 1016.1
20200710043401 69 203 0.0 0.0 0.00 0.00 0.00 93 1016.0
20200710042847 69 203 0.0 0.0 0.00 0.00 0.00 93 1016.0
20200710042356 69 203 0.0 0.0 0.00 0.00 0.00 93 1016.0
20200710041844 70 203 0.0 0.0 0.00 0.00 0.00 93 1015.9
20200710041354 70 203 0.0 0.0 0.00 0.00 0.00 93 1015.8
20200710040840 70 203 0.0 0.0 0.00 0.00 0.00 93 1015.9
20200710035853 70 203 0.0 0.0 0.00 0.00 0.00 93 1015.8
20200710034859 70 203 0.0 0.0 0.00 0.00 0.00 93 1015.8
20200710034347 70 203 0.0 0.0 0.00 0.00 0.00 92 1015.7
20200710033855 70 203 0.0 0.0 0.00 0.00 0.00 92 1015.8
20200710033342 70 203 0.0 0.0 0.00 0.00 0.00 92 1015.9
20200710032850 70 203 0.0 0.0 0.00 0.00 0.00 92 1015.8
20200710032359 71 203 0.0 0.0 0.00 0.00 0.00 92 1015.7
20200710031856 71 203 0.0 0.0 0.00 0.00 0.00 92 1015.9
20200710031344 71 203 0.0 0.0 0.00 0.00 0.00 91 1015.8
20200710030849 71 203 0.0 0.0 0.00 0.00 0.00 91 1015.7
20200710030344 71 203 0.0 0.0 0.00 0.00 0.00 91 1015.8
20200710025852 71 203 0.0 0.0 0.00 0.00 0.00 91 1015.7
20200710025358 71 203 0.0 0.0 0.00 0.00 0.00 91 1015.6
20200710024845 71 203 0.0 0.0 0.00 0.00 0.00 90 1015.6
20200710024353 72 203 0.0 0.0 0.00 0.00 0.00 90 1015.5
20200710023841 72 203 0.0 0.0 0.00 0.00 0.00 90 1015.4
20200710023350 72 203 0.0 0.0 0.00 0.00 0.00 89 1015.3
20200710022857 72 203 0.0 0.0 0.00 0.00 0.00 89 1015.3
20200710022345 72 203 0.0 0.0 0.00 0.00 0.00 89 1015.3
20200710021851 72 203 0.0 0.0 0.00 0.00 0.00 88 1015.3
20200710020842 73 203 0.0 0.0 0.00 0.00 0.00 88 1015.3
20200710020348 73 203 0.0 0.0 0.00 0.00 0.00 87 1015.3
20200710015855 73 203 0.0 0.0 0.00 0.00 0.00 87 1015.2
20200710015348 73 203 0.0 0.0 0.00 0.00 0.00 86 1015.0
20200710014856 74 203 0.0 0.0 0.00 0.00 0.00 85 1015.0
20200710014343 74 203 0.0 0.0 0.00 0.00 0.00 85 1015.1
20200710013851 74 203 0.0 0.0 0.00 0.00 0.00 84 1015.2
20200710013358 75 203 0.0 0.0 0.00 0.00 0.00 84 1015.2
20200710012843 75 203 0.0 0.0 0.00 0.00 0.00 83 1015.2
20200710012351 75 203 0.0 0.0 0.00 0.00 0.00 82 1015.2
20200710011857 76 203 0.0 0.0 0.00 0.00 0.00 82 1015.2
20200710011343 76 203 0.0 0.0 0.00 0.00 0.00 81 1015.3
20200710010848 76 203 0.0 0.0 0.00 0.00 0.00 80 1015.3
20200710010358 77 203 0.0 0.0 0.00 0.00 0.00 79 1015.4
20200710005846 77 203 0.0 0.0 0.00 0.00 0.00 77 1015.3
20200710005353 78 203 0.0 0.0 0.00 0.00 0.00 77 1015.2
20200710004841 78 203 0.0 0.0 0.00 0.00 0.00 75 1015.3
20200710004350 79 203 0.0 0.0 0.00 0.00 0.00 75 1015.3
20200710003855 79 203 0.0 0.0 0.00 0.00 0.00 74 1015.3
20200710003342 80 203 0.0 1.0 0.00 0.00 0.00 74 1015.4
20200710002852 80 203 0.0 1.0 0.00 0.00 0.00 72 1015.3
20200710002359 80 203 0.0 1.0 0.00 0.00 0.00 70 1015.3
20200710001900 81 201 0.0 1.0 0.00 0.00 0.00 70 1015.2
20200710001347 81 83 0.0 1.0 0.00 0.00 0.00 69 1015.2
20200710000855 81 83 0.0 2.0 0.00 0.00 0.00 67 1015.2
20200709235845 82 83 0.0 2.0 0.00 0.00 0.00 64 1015.2
20200709235352 82 121 0.0 1.0 0.00 0.00 0.00 64 1015.1
20200709234901 83 121 0.0 3.0 0.00 0.00 0.00 64 1015.1
20200709234347 83 121 0.0 3.0 0.00 0.00 0.00 62 1015.0
20200709233855 83 24 0.0 3.0 0.00 0.00 0.00 62 1015.1
20200709233344 83 12 1.0 3.0 0.00 0.00 0.00 62 1015.0
20200709232850 83 65 0.0 5.0 0.00 0.00 0.00 62 1015.0
20200709232358 84 51 1.0 5.0 0.00 0.00 0.00 61 1014.9
20200709231845 84 60 0.0 2.0 0.00 0.00 0.00 61 1015.0
20200709231353 84 59 1.0 4.0 0.00 0.00 0.00 61 1015.0
20200709230859 84 59 0.0 4.0 0.00 0.00 0.00 60 1014.9
20200709230349 84 208 327.0 327.0 0.00 0.00 0.00 60 1014.8
20200709225844 85 140 1.0 8.0 0.00 0.00 0.00 59 1015.0
20200709225352 85 82 1.0 8.0 0.00 0.00 0.00 58 1014.8
20200709224859 85 116 1.0 4.0 0.00 0.00 0.00 59 1014.8
20200709224351 85 236 1.0 4.0 0.00 0.00 0.00 58 1014.8
20200709223854 85 182 1.0 4.0 0.00 0.00 0.00 58 1014.8
20200709223342 86 316 1.0 4.0 0.00 0.00 0.00 59 1014.8
20200709222851 86 273 327.0 327.0 0.00 0.00 0.00 59 1014.7
20200709222342 86 202 1.0 4.0 0.00 0.00 0.00 60 1014.6
20200709221851 86 70 2.0 8.0 0.00 0.00 0.00 58 1014.6
20200709221359 86 62 2.0 8.0 0.00 0.00 0.00 59 1014.6
20200709220844 86 78 1.0 7.0 0.00 0.00 0.00 59 1014.6
20200709220356 87 48 1.0 7.0 0.00 0.00 0.00 58 1014.4
20200709215844 87 189 1.0 4.0 0.00 0.02 0.00 58 1014.5
20200709215353 87 124 1.0 7.0 0.00 0.02 0.00 57 1014.5
20200709214901 87 345 1.0 7.0 0.00 0.02 0.00 57 1014.6
20200709214410 87 185 0.0 6.0 0.00 0.02 0.00 56 1014.5
20200709213856 88 56 1.0 6.0 0.00 0.02 0.00 55 1014.4
20200709213356 88 100 1.0 4.0 0.00 0.02 0.00 57 1014.6
20200709212849 88 29 0.0 3.0 0.00 0.02 0.00 56 1014.6
20200709212356 88 136 0.0 5.0 0.00 0.02 0.00 56 1014.5
20200709211843 88 266 1.0 5.0 0.00 0.02 0.00 55 1014.5
20200709211350 88 314 0.0 4.0 0.00 0.02 0.00 54 1014.6
20200709210847 88 176 2.0 9.0 0.00 0.02 0.00 54 1014.7
20200709210355 88 43 1.0 9.0 0.00 0.02 0.00 54 1014.6
20200709205849 88 66 1.0 4.0 0.00 0.06 0.00 55 1014.7
20200709205355 88 63 1.0 5.0 0.00 0.06 0.00 55 1014.8
20200709204903 88 89 1.0 5.0 0.00 0.06 0.00 56 1014.6
20200709204348 88 80 0.0 4.0 0.00 0.06 0.00 55 1014.6
20200709203857 88 274 2.0 6.0 0.00 0.06 0.00 54 1014.5
20200709203401 89 345 1.0 4.0 0.00 0.06 0.00 55 1014.7
20200709202848 89 72 1.0 4.0 0.00 0.06 0.00 54 1014.7
20200709202356 90 66 1.0 4.0 0.00 0.06 0.00 54 1014.6
20200709201902 90 46 1.0 4.0 0.00 0.06 0.00 53 1014.8
20200709201350 90 216 2.0 3.0 0.00 0.06 0.00 53 1014.7
20200709200853 91 164 1.0 2.0 0.00 0.06 0.00 54 1014.9
20200709200346 91 104 1.0 3.0 0.00 0.06 0.00 53 1014.8
20200709195852 91 176 1.0 3.0 0.00 1.13 0.00 53 1014.9
20200709195356 91 186 327.0 327.0 0.00 0.00 0.00 54 1014.9
20200709194858 90 103 0.0 2.0 0.00 1.13 0.00 53 1015.0
20200709194342 90 262 1.0 2.0 0.00 1.13 0.00 55 1015.1
20200709193849 90 262 1.0 2.0 0.00 1.13 0.00 55 1015.1
20200709193358 90 262 1.0 2.0 0.00 1.13 0.00 57 1015.0
20200709192846 89 262 1.0 3.0 0.00 1.13 0.00 56 1015.0
20200709192352 89 69 1.0 5.0 0.00 1.13 0.00 59 1015.0
20200709191352 89 165 2.0 4.0 0.00 1.13 0.00 59 1015.0
20200709190858 88 58 1.0 2.0 0.00 1.13 0.00 62 1014.9
20200709190350 88 51 1.0 4.0 0.00 1.13 0.00 62 1014.9
20200709185900 88 51 1.0 4.0 0.00 1.37 0.00 62 1015.1
20200709185347 87 32 1.0 4.0 0.00 1.37 0.00 66 1015.1
20200709184856 87 69 2.0 4.0 0.00 1.37 0.00 64 1015.1
20200709184343 88 241 1.0 4.0 0.00 1.37 0.00 64 1015.1
20200709183854 88 45 1.0 3.0 0.00 1.37 0.00 63 1015.0
20200709183359 88 75 1.0 3.0 0.00 1.37 0.00 62 1015.1
20200709182846 88 95 1.0 4.0 0.00 1.37 0.00 65 1015.0
20200709182353 88 95 1.0 4.0 0.00 1.37 0.00 64 1015.1
20200709181900 88 112 1.0 3.0 0.00 1.37 0.00 65 1015.0
20200709181349 87 300 1.0 6.0 0.00 1.37 0.00 66 1015.0
20200709180900 87 334 2.0 6.0 0.00 1.37 0.00 64 1014.9
20200709180346 87 266 0.0 4.0 0.00 1.37 0.00 64 1015.0
20200709175855 87 295 1.0 4.0 0.00 1.37 0.00 64 1015.0
20200709175403 87 44 1.0 4.0 0.00 1.37 0.00 64 1015.1
20200709174848 88 104 0.0 2.0 0.00 1.37 0.00 64 1015.1
20200709174357 87 107 0.0 3.0 0.00 1.37 0.00 64 1015.2
20200709173900 87 95 0.0 3.0 0.00 1.37 0.00 66 1015.3
20200709173350 87 131 0.0 2.0 0.00 1.37 0.00 65 1015.4
20200709172859 87 181 1.0 2.0 0.00 1.37 0.00 66 1015.4
20200709172350 87 181 1.0 3.0 0.00 1.37 0.00 67 1015.3
20200709171856 87 119 1.0 3.0 0.00 1.37 0.00 67 1015.3
20200709171515 86 248 0.0 2.0 0.00 1.37 0.00 71 1014.7
20200709171404 86 248 1.0 2.0 0.00 1.37 0.00 70 1015.3
20200709170845 86 248 0.0 4.0 0.00 1.37 0.00 70 1015.4
20200709170359 85 295 0.0 4.0 0.00 1.37 0.00 70 1015.4
20200709165846 85 294 2.0 3.0 0.00 1.37 0.00 71 1015.5
20200709165351 85 47 1.0 3.0 0.00 1.37 0.00 74 1015.5
20200709164856 84 282 2.0 3.0 0.00 1.37 0.00 73 1015.5
20200709164516 84 212 0.0 2.0 0.00 1.37 0.00 75 1015.0
20200709164445 84 212 0.0 2.0 0.00 1.37 0.00 75 1015.6
20200709163849 84 212 1.0 3.0 0.00 1.37 0.00 75 1015.7
20200709163401 84 210 1.0 3.0 0.00 1.37 0.00 75 1015.9
20200709162843 84 140 0.0 4.0 0.00 1.37 0.00 75 1016.0
20200709162353 84 91 0.0 4.0 0.00 1.37 0.00 76 1016.2
20200709161901 84 91 1.0 3.0 0.00 1.37 0.00 77 1016.2
20200709161507 83 81 0.0 3.0 0.00 1.37 0.00 77 1015.6
20200709161404 84 81 1.0 3.0 0.00 1.37 0.00 78 1016.2
20200709160354 83 45 0.0 2.0 0.00 1.37 0.00 78 1016.3
20200709155900 83 322 1.0 2.0 0.00 1.37 0.00 79 1016.4
20200709155345 82 313 0.0 2.0 0.00 1.37 0.00 83 1016.4
20200709154849 81 313 0.0 3.0 0.00 1.37 0.00 83 1016.5
20200709154358 81 313 2.0 3.0 0.00 1.37 0.00 85 1016.6
20200709153847 80 224 0.0 2.0 0.00 1.37 0.00 87 1016.6
20200709153354 79 224 0.0 3.0 0.00 1.37 0.00 87 1016.6
20200709152842 79 253 1.0 3.0 0.00 1.37 0.00 87 1016.6
20200709152349 79 195 1.0 2.0 0.00 1.37 0.00 89 1016.6
20200709151857 78 42 0.0 3.0 0.00 1.37 0.00 91 1016.6
20200709151346 77 91 1.0 3.0 0.00 1.37 0.00 92 1016.7
20200709150359 77 91 1.0 3.0 0.00 1.37 0.00 95 1016.7
20200709145849 76 91 1.0 3.0 0.00 1.37 0.00 96 1016.6
20200709145407 76 176 0.0 3.0 0.00 1.37 0.00 96 1016.8
20200709144845 75 300 0.0 3.0 0.00 1.37 0.00 96 1016.9
20200709144352 75 300 0.0 3.0 0.00 1.37 0.00 96 1016.9
20200709143859 75 300 0.0 2.0 0.00 1.37 0.00 97 1016.9
20200709143430 75 300 1.0 2.0 0.00 1.37 0.00 97 1016.9
20200709142854 75 300 0.0 1.0 0.00 1.37 0.00 97 1016.8
20200709142345 74 300 0.0 1.0 0.00 1.37 0.00 97 1016.8
20200709141851 74 300 0.0 0.0 0.00 1.37 0.00 97 1016.8
20200709141400 74 300 0.0 1.0 0.00 1.37 0.00 97 1016.7
20200709140852 74 300 0.0 1.0 0.00 1.37 0.00 97 1016.7
20200709140354 74 300 0.0 1.0 0.00 1.37 0.00 97 1016.8
20200709135845 74 300 0.0 1.0 0.00 1.37 0.00 97 1016.8
20200709135352 74 300 0.0 1.0 0.00 1.37 0.00 97 1016.8
20200709134843 73 300 0.0 2.0 0.00 1.37 0.00 97 1016.8